Regional Weather Roundup
Issued by NWS

Home | Current Version | Previous Version | Text Only | Print | Product List | Glossary Off
Versions: 1 2 3 4 5 6 7 8 9 10 11 12 13 14 15 16 17 18 19 20 21 22 23 24 25 26 27 28 29 30 31 32 33 34 35 36 37 38 39 40 41 42 43 44 45 46 47 48 49 50

511
ASUS44 KMEG 091110
RWRTN
TENNESSEE HOURLY STATE WEATHER ROUNDUP
NATIONAL WEATHER SERVICE MEMPHIS TN
500 AM CST TUE FEB 09 2016

TNZ002-004-019-021-049-052-054-088>092-091200-
WEST TENNESSEE

CITY           SKY/WX    TMP DP  RH WIND       PRES   REMARKS
MEMPHIS INTL   CLOUDY    33  19  56 NW8       29.95S WCI  26
NWS MEMPHIS      N/A     32 N/A N/A MISG        N/A
JACKSON        FLURRIES  28  21  75 NW15      29.93R WCI  16
DYERSBURG      CLOUDY    27  18  69 NW13      29.95S WCI  16
UNION CITY     CLOUDY    23  21  93 NW7       29.91R WCI  15
PARIS          MOCLDY    21  19  93 W6        29.88S WCI  14
$$

TNZ008-025-027-028-033-062-065-066-091200-
NORTH MIDDLE TENNESSEE

CITY           SKY/WX    TMP DP  RH WIND       PRES   REMARKS
NASHVILLE      FLURRIES  26  19  74 N8        29.87R WCI  18
CLARKSVILLE    CLOUDY    24  16  71 NW7       29.87R WCI  16
SMYRNA         CLOUDY    26  21  81 NW7       29.88R WCI  18
COOKEVILLE     CLOUDY    25  18  74 NW5       29.82R WCI  19
CROSSVILLE     CLOUDY    21  12  68 W7        29.76R WCI  12
$$

TNZ061-075-076-078-094-096-097-091200-
SOUTH MIDDLE TENNESSEE

CITY           SKY/WX    TMP DP  RH WIND       PRES   REMARKS
FAYETTEVILLE   CLOUDY    28  23  80 CALM      29.85R
TULLAHOMA      CLOUDY    23  23 100 NW3       29.84R
WINCHESTER     CLOUDY    27  19  74 N6        29.84S WCI  20
MCMINNVILLE    CLOUDY    23  19  86 SW5       29.83R WCI  17
COLUMBIA       CLOUDY    28  27  93 VRB6      29.85R WCI  22
SHELBYVILLE    CLOUDY    27  25  93 CALM      29.87R
$$

TNZ017-018-042-046-047-091200-
NORTHEAST TENNESSEE

CITY           SKY/WX    TMP DP  RH WIND       PRES   REMARKS
TRI CITIES     CLOUDY    26  22  84 W8        29.70R WCI  18
$$

TNZ012-013-036-069-073-074-091200-
CENTRAL EAST TENNESSEE

CITY           SKY/WX    TMP DP  RH WIND       PRES   REMARKS
KNOXVILLE      CLOUDY    28  15  58 W16G22    29.79R WCI  16
OAK RIDGE      CLOUDY    28  18  66 W6        29.80R WCI  22
GATLINBURG     CLOUDY    27  16  63 W12       29.77R WCI  16
MORRISTOWN     CLOUDY    27  18  69 W9        29.73R WCI  17
$$

TNZ083-085-099-091200-
SOUTHEAST TENNESSEE

CITY           SKY/WX    TMP DP  RH WIND       PRES   REMARKS
CHATTANOOGA    FLURRIES  31  19  61 NW7       29.85R WCI  24
$$

SKY/WX REPORTED AS FAIR MEANS FEW OR NO CLOUDS BELOW
12 THOUSAND FEET.





USA.gov is the U.S. government's official web portal to all federal, state and local government web resources and services.